TimeCST,TemperatureF,Dew PointF,Humidity,Sea Level PressureIn,VisibilityMPH,Wind Direction,Wind SpeedMPH,Gust SpeedMPH,PrecipitationIn,Events,Conditions,WindDirDegrees,DateUTC
12:15 AM,30.2,21.2,69,29.71,10.0,SSE,13.8,21.9,N/A,,Partly Cloudy,150,2013-02-18 06:15:00
12:55 AM,30.2,21.2,69,29.69,10.0,SSE,12.7,20.7,N/A,,Partly Cloudy,160,2013-02-18 06:55:00
1:15 AM,30.2,23.0,75,29.68,10.0,SSE,15.0,21.9,N/A,,Clear,150,2013-02-18 07:15:00
1:35 AM,30.2,23.0,75,29.67,10.0,SSE,12.7,21.9,N/A,,Clear,150,2013-02-18 07:35:00
1:55 AM,30.2,23.0,75,29.66,10.0,SSE,13.8,20.7,N/A,,Clear,160,2013-02-18 07:55:00
2:15 AM,30.2,23.0,75,29.65,10.0,SSE,11.5,18.4,N/A,,Unknown,160,2013-02-18 08:15:00
2:35 AM,30.2,23.0,75,29.64,10.0,SSE,11.5,19.6,N/A,,Clear,160,2013-02-18 08:35:00
2:55 AM,30.2,23.0,75,29.63,10.0,SSE,10.4,17.3,N/A,,Partly Cloudy,160,2013-02-18 08:55:00
3:15 AM,30.2,23.0,75,-9999,10.0,North,-9999.0,-,N/A,,Clear,0,2013-02-18 09:15:00
3:35 AM,30.2,23.0,75,29.61,10.0,SSE,9.2,-,N/A,,Partly Cloudy,160,2013-02-18 09:35:00
3:55 AM,28.4,23.0,80,29.61,10.0,SSE,8.1,-,N/A,,Clear,150,2013-02-18 09:55:00
4:15 AM,28.4,23.0,80,29.61,10.0,SSE,6.9,-,N/A,,Clear,160,2013-02-18 10:15:00
4:35 AM,28.4,23.0,80,29.60,10.0,SSE,6.9,-,N/A,,Clear,150,2013-02-18 10:35:00
4:55 AM,28.4,23.0,80,29.59,10.0,SE,6.9,-,N/A,,Clear,140,2013-02-18 10:55:00
5:15 AM,28.4,24.8,86,29.58,10.0,SE,5.8,-,N/A,,Partly Cloudy,140,2013-02-18 11:15:00
5:35 AM,28.4,24.8,86,29.58,10.0,SSE,5.8,-,N/A,,Partly Cloudy,150,2013-02-18 11:35:00
5:55 AM,28.4,24.8,86,29.57,10.0,SSE,8.1,-,N/A,,Partly Cloudy,150,2013-02-18 11:55:00
6:15 AM,28.4,24.8,86,29.56,10.0,SSE,9.2,-,N/A,,Clear,160,2013-02-18 12:15:00
6:35 AM,30.2,24.8,80,29.56,10.0,SSE,10.4,-,N/A,,Clear,160,2013-02-18 12:35:00
6:55 AM,28.4,24.8,86,29.57,10.0,SSE,8.1,-,N/A,,Clear,160,2013-02-18 12:55:00
7:15 AM,30.2,24.8,80,29.57,10.0,South,4.6,-,N/A,,Clear,170,2013-02-18 13:15:00
7:35 AM,30.2,26.6,86,29.56,10.0,SSE,6.9,-,N/A,,Clear,160,2013-02-18 13:35:00
7:55 AM,30.2,24.8,80,29.56,10.0,SSE,4.6,-,N/A,,Clear,150,2013-02-18 13:55:00
8:15 AM,30.2,26.6,86,29.55,10.0,South,5.8,-,N/A,,Clear,170,2013-02-18 14:15:00
8:35 AM,30.2,26.6,86,29.55,10.0,South,5.8,-,N/A,,Clear,180,2013-02-18 14:35:00
8:55 AM,32.0,28.4,87,29.55,10.0,South,5.8,-,N/A,,Clear,170,2013-02-18 14:55:00
9:15 AM,32.0,28.4,87,29.55,10.0,SSW,4.6,-,N/A,,Clear,200,2013-02-18 15:15:00
9:35 AM,33.8,28.4,81,29.54,10.0,South,6.9,-,N/A,,Clear,190,2013-02-18 15:35:00
9:55 AM,33.8,28.4,81,29.54,10.0,SSW,4.6,-,N/A,,Clear,200,2013-02-18 15:55:00
10:15 AM,35.6,30.2,81,29.55,10.0,SSW,9.2,-,N/A,,Clear,210,2013-02-18 16:15:00
10:35 AM,37.4,30.2,75,29.55,10.0,WSW,5.8,-,N/A,,Clear,250,2013-02-18 16:35:00
10:55 AM,37.4,28.4,70,29.54,10.0,Variable,6.9,-,N/A,,Clear,0,2013-02-18 16:55:00
11:15 AM,37.4,28.4,70,29.53,10.0,Variable,6.9,-,N/A,,Clear,0,2013-02-18 17:15:00
11:35 AM,37.4,28.4,70,29.53,10.0,Variable,6.9,-,N/A,,Scattered Clouds,0,2013-02-18 17:35:00
11:55 AM,37.4,28.4,70,29.53,10.0,West,10.4,-,N/A,,Mostly Cloudy,270,2013-02-18 17:55:00
12:15 PM,37.4,30.2,75,29.53,10.0,Variable,4.6,-,N/A,,Mostly Cloudy,0,2013-02-18 18:15:00
12:35 PM,37.4,30.2,75,29.52,10.0,Variable,6.9,-,N/A,,Overcast,0,2013-02-18 18:35:00
12:55 PM,37.4,30.2,75,29.52,10.0,WNW,4.6,11.5,N/A,,Overcast,290,2013-02-18 18:55:00
1:15 PM,37.4,30.2,75,29.53,10.0,West,8.1,-,N/A,,Overcast,280,2013-02-18 19:15:00
1:35 PM,37.4,30.2,75,29.53,10.0,Variable,5.8,-,N/A,,Unknown,0,2013-02-18 19:35:00
1:55 PM,35.6,32.0,87,29.55,9.0,West,11.5,-,N/A,,Unknown,280,2013-02-18 19:55:00
2:15 PM,33.8,32.0,93,29.56,3.0,WNW,12.7,18.4,N/A,,Overcast,300,2013-02-18 20:15:00
2:35 PM,32.0,32.0,100,29.55,2.0,WNW,16.1,24.2,N/A,Snow,Light Snow,300,2013-02-18 20:35:00
2:55 PM,30.2,28.4,93,29.57,7.0,WNW,11.5,27.6,N/A,,Overcast,300,2013-02-18 20:55:00
3:15 PM,30.2,26.6,86,29.58,9.0,WNW,11.5,20.7,N/A,,Overcast,290,2013-02-18 21:15:00
3:35 PM,30.2,24.8,80,29.57,10.0,WNW,10.4,24.2,N/A,,Overcast,300,2013-02-18 21:35:00
3:55 PM,28.4,23.0,80,29.58,8.0,NW,11.5,28.8,N/A,,Overcast,310,2013-02-18 21:55:00
4:15 PM,26.6,23.0,86,29.58,1.5,WNW,13.8,21.9,N/A,Snow,Light Snow,300,2013-02-18 22:15:00
4:35 PM,24.8,21.2,86,29.58,3.0,NW,17.3,26.5,N/A,Snow,Light Snow,310,2013-02-18 22:35:00
4:55 PM,24.8,17.6,74,29.59,9.0,NW,18.4,28.8,N/A,Rain,Freezing Rain,310,2013-02-18 22:55:00
5:35 PM,21.2,15.8,80,29.61,10.0,WNW,16.1,28.8,N/A,,Overcast,300,2013-02-18 23:35:00
5:55 PM,21.2,15.8,80,29.63,10.0,WNW,13.8,21.9,N/A,,Overcast,290,2013-02-18 23:55:00
6:15 PM,19.4,14.0,80,29.64,5.0,WNW,13.8,26.5,N/A,Snow,Light Snow,300,2013-02-19 00:15:00
6:35 PM,17.6,10.4,73,29.65,10.0,NW,18.4,32.2,N/A,Snow,Light Snow,310,2013-02-19 00:35:00
6:55 PM,17.6,10.4,73,29.66,10.0,WNW,16.1,26.5,N/A,,Unknown,300,2013-02-19 00:55:00
7:15 PM,15.8,10.4,79,29.64,9.0,NW,12.7,28.8,N/A,Snow,Light Snow,310,2013-02-19 01:15:00
7:35 PM,15.8,8.6,73,29.65,9.0,NW,13.8,28.8,N/A,Snow,Light Snow,310,2013-02-19 01:35:00
7:55 PM,14.0,8.6,79,29.66,8.0,WNW,12.7,21.9,N/A,Snow,Light Snow,300,2013-02-19 01:55:00
8:15 PM,14.0,6.8,73,29.65,10.0,WNW,13.8,28.8,N/A,Rain,Freezing Rain,300,2013-02-19 02:15:00
8:35 PM,14.0,6.8,73,29.65,9.0,WNW,12.7,27.6,N/A,Snow,Light Snow,300,2013-02-19 02:35:00
8:55 PM,14.0,6.8,73,29.66,8.0,WNW,15.0,25.3,N/A,Snow,Light Snow,290,2013-02-19 02:55:00
9:15 PM,12.2,5.0,73,29.67,10.0,WNW,13.8,36.8,N/A,,Overcast,300,2013-02-19 03:15:00
9:35 PM,12.2,5.0,73,29.68,6.0,NW,17.3,31.1,N/A,Rain,Freezing Rain,310,2013-02-19 03:35:00
9:55 PM,10.4,5.0,79,29.68,8.0,WNW,15.0,21.9,N/A,,Freezing Rain,300,2013-02-19 03:55:00
10:15 PM,10.4,5.0,79,29.68,9.0,WNW,12.7,25.3,N/A,,Overcast,290,2013-02-19 04:15:00
10:35 PM,10.4,3.2,73,29.70,7.0,NW,11.5,24.2,N/A,Rain,Freezing Rain,310,2013-02-19 04:35:00
10:55 PM,10.4,3.2,73,29.70,7.0,WNW,12.7,20.7,N/A,,Freezing Rain,300,2013-02-19 04:55:00
11:15 PM,10.4,3.2,73,29.70,6.0,WNW,16.1,23.0,N/A,Rain,Freezing Rain,290,2013-02-19 05:15:00
11:35 PM,10.4,3.2,73,29.71,6.0,WNW,16.1,28.8,N/A,Rain,Freezing Rain,300,2013-02-19 05:35:00
11:55 PM,8.6,3.2,79,29.71,5.0,WNW,13.8,27.6,N/A,Snow,Light Snow,300,2013-02-19 05:55:00